Weather History for Rocky Mount, NC

Change the Weather History Date:

Saturday, September 15, 2012

  Actual Average Record
Temperature  
Mean Temperature 70 °F -  
Max Temperature 81 °F 83 °F 94 °F (1956)
Min Temperature 59 °F 60 °F 42 °F (1985)
Cooling Degree Days 5    
Growing Degree Days 20 (Base 50)    
Moisture  
Dew Point 61 °F    
Average Humidity 89    
Maximum Humidity 100    
Minimum Humidity 54    
Precipitation  
Precipitation 0.00 in - - ()
Sea Level Pressure  
Sea Level Pressure 30.14 in    
Wind  
Wind Speed 1 mph (NNE)    
Max Wind Speed 10 mph    
Max Gust Speed -    
Visibility 4 miles    
Events Fog    
Averages and records for this station are not official NWS values.
T = Trace of Precipitation, MM = Missing Value Source: NWS Daily Summary

Daily Weather History Graph

Daily Weather History Graph

Search for Another Location

Airport:

Trip Planner

Search our weather history database for the weather conditions in past years. The results will help you decide how hot, cold, wet, or windy it might be!

Date:

Astronomy

Sep. 15, 2012 Rise Set
Actual Time 6:54 AM EDT 7:18 PM EDT
Civil Twilight 6:28 AM EDT 7:43 PM EDT
Nautical Twilight 5:58 AM EDT 8:13 PM EDT
Astronomical Twilight 5:28 AM EDT 8:44 PM EDT
Moon 6:22 AM EDT (9/15) 6:49 PM EDT (9/15)
Length of Visible Light 13h 14m
Length of Day
12h 23m
Waning Crescent, 0% of the Moon is Illuminated
Sep 15
Waning Crescent
Sep 15
New
Sep 22
First Quarter
Sep 29
Full
Oct 8
Last Quarter

Hourly Weather History & Observations

Time (EDT) Temp. Heat Index Dew Point Humidity Pressure Visibility Wind Dir Wind Speed Gust Speed Precip Events Conditions
12:35 AM 64.4 °F - 62.6 °F 94% 30.15 in 9.0 mi Calm Calm - N/A   Clear
12:48 AM 62.6 °F - 62.6 °F 100% 30.15 in 1.5 mi Calm Calm - N/A   Clear
12:53 AM 63.0 °F - 62.1 °F 97% 30.14 in 0.5 mi Calm Calm - N/A Fog Fog
1:12 AM 62.6 °F - 62.6 °F 100% 30.15 in 0.2 mi Calm Calm - N/A Fog Fog
1:53 AM 61.0 °F - 61.0 °F 100% 30.14 in 0.2 mi Calm Calm - N/A Fog Fog
2:05 AM 62.6 °F - 60.8 °F 94% 30.14 in 0.8 mi Calm Calm - N/A   Mist
2:09 AM 60.8 °F - 60.8 °F 100% 30.14 in 1.2 mi Calm Calm - N/A   Scattered Clouds
2:18 AM 62.6 °F - 60.8 °F 94% 30.14 in 0.8 mi Calm Calm - N/A   Mist
2:21 AM 62.6 °F - 60.8 °F 94% 30.14 in 0.2 mi Calm Calm - N/A Fog Fog
2:53 AM 61.0 °F - 60.1 °F 97% 30.13 in 0.2 mi Calm Calm - N/A Fog Fog
3:32 AM 60.8 °F - 60.8 °F 100% 30.13 in 0.2 mi Calm Calm - N/A Fog Fog
3:42 AM 60.8 °F - 60.8 °F 100% 30.13 in 0.2 mi Calm Calm - N/A Fog Fog
3:45 AM 62.6 °F - 60.8 °F 94% 30.13 in 0.5 mi Calm Calm - N/A Fog Fog
3:53 AM 62.6 °F - 62.6 °F 100% 30.13 in 0.5 mi Calm Calm - N/A Fog Fog
4:01 AM 62.6 °F - 62.6 °F 100% 30.13 in 0.5 mi Calm Calm - N/A Fog Fog
4:11 AM 62.6 °F - 62.6 °F 100% 30.13 in 0.5 mi Calm Calm - N/A Fog Fog
4:18 AM 60.8 °F - 60.8 °F 100% 30.13 in 0.2 mi Calm Calm - N/A Fog Fog
4:36 AM 60.8 °F - 59.0 °F 94% 30.13 in 0.8 mi Calm Calm - N/A   Mist
4:43 AM 60.8 °F - 59.0 °F 94% 30.13 in 0.2 mi Calm Calm - N/A Fog Fog
4:53 AM 61.0 °F - 60.1 °F 97% 30.13 in 0.2 mi Calm Calm - N/A Fog Fog
5:21 AM 62.6 °F - 62.6 °F 100% 30.13 in 0.8 mi Calm Calm - N/A   Mist
5:37 AM 62.6 °F - 60.8 °F 94% 30.13 in 0.5 mi Calm Calm - N/A Fog Fog
5:53 AM 63.0 °F - 62.1 °F 97% 30.13 in 1.0 mi Calm Calm - N/A   Clear
6:01 AM 60.8 °F - 60.8 °F 100% 30.14 in 0.2 mi Calm Calm - N/A Fog Fog
6:14 AM 60.8 °F - 60.8 °F 100% 30.14 in 0.5 mi Calm Calm - N/A Fog Fog
6:29 AM 60.8 °F - 59.0 °F 94% 30.14 in 1.2 mi Calm Calm - N/A   Scattered Clouds
6:37 AM 60.8 °F - 60.8 °F 100% 30.14 in 2.0 mi Calm Calm - N/A   Scattered Clouds
6:45 AM 60.8 °F - 59.0 °F 94% 30.14 in 1.8 mi Calm Calm - N/A   Scattered Clouds
6:49 AM 60.8 °F - 59.0 °F 94% 30.15 in 3.0 mi Calm Calm - N/A   Scattered Clouds
6:53 AM 60.1 °F - 59.0 °F 96% 30.15 in 5.0 mi Calm Calm - N/A   Scattered Clouds
7:03 AM 59.0 °F - 57.2 °F 94% 30.15 in 4.0 mi Calm Calm - N/A   Mostly Cloudy
7:10 AM 59.0 °F - 57.2 °F 94% 30.15 in 1.5 mi Calm Calm - N/A   Mostly Cloudy
7:26 AM 60.8 °F - 60.8 °F 100% 30.16 in 0.8 mi Calm Calm - N/A   Mist
7:35 AM 62.6 °F - 60.8 °F 94% 30.16 in 0.2 mi Calm Calm - N/A Fog Fog
7:53 AM 64.0 °F - 63.0 °F 96% 30.16 in 0.5 mi Calm Calm - N/A Fog Fog
7:58 AM 64.4 °F - 64.4 °F 100% 30.16 in 1.0 mi Calm Calm - N/A   Mist
8:01 AM 64.4 °F - 64.4 °F 100% 30.16 in 2.0 mi Calm Calm - N/A   Scattered Clouds
8:09 AM 66.2 °F - 64.4 °F 94% 30.16 in 9.0 mi Calm Calm - N/A   Partly Cloudy
8:53 AM 71.1 °F - 66.9 °F 87% 30.17 in 10.0 mi NW 5.8 mph - N/A   Clear
9:53 AM 75.0 °F - 66.0 °F 73% 30.18 in 10.0 mi North 5.8 mph - N/A   Clear
10:53 AM 78.1 °F - 64.0 °F 62% 30.18 in 10.0 mi NE 5.8 mph - N/A   Clear
11:53 AM 79.0 °F - 64.0 °F 60% 30.18 in 10.0 mi NE 8.1 mph - N/A   Partly Cloudy
12:53 PM 80.1 °F 81.7 °F 64.0 °F 58% 30.17 in 10.0 mi Variable 6.9 mph - N/A   Scattered Clouds
1:53 PM 80.1 °F 81.5 °F 63.0 °F 56% 30.15 in 10.0 mi NE 10.4 mph - N/A   Mostly Cloudy
2:53 PM 81.0 °F 82.2 °F 63.0 °F 54% 30.14 in 10.0 mi North 6.9 mph - N/A   Scattered Clouds
3:53 PM 81.0 °F 82.5 °F 64.0 °F 56% 30.13 in 10.0 mi NNE 9.2 mph - N/A   Mostly Cloudy
4:53 PM 78.1 °F - 63.0 °F 60% 30.12 in 10.0 mi North 10.4 mph - N/A   Partly Cloudy
5:53 PM 77.0 °F - 62.1 °F 60% 30.12 in 10.0 mi North 8.1 mph - N/A   Clear
6:53 PM 72.0 °F - 64.0 °F 76% 30.13 in 10.0 mi NNE 3.5 mph - N/A   Clear
7:53 PM 68.0 °F - 61.0 °F 78% 30.14 in 10.0 mi Calm Calm - N/A   Clear
8:53 PM 64.9 °F - 60.1 °F 84% 30.15 in 10.0 mi Calm Calm - N/A   Clear
9:53 PM 64.0 °F - 59.0 °F 84% 30.15 in 10.0 mi Calm Calm - N/A   Clear
10:53 PM 61.0 °F - 57.9 °F 90% 30.16 in 10.0 mi Calm Calm - N/A   Clear
11:53 PM 61.0 °F - 57.0 °F 87% 30.15 in 10.0 mi Calm Calm - N/A   Clear